Regional Weather Roundup
Issued by NWS

Home | Current Version | Previous Version | Text Only | Print | Product List | Glossary On
Versions: 1 2 3 4 5 6 7 8 9 10 11 12 13 14 15 16 17 18 19 20 21 22 23 24 25 26 27 28
000
ASUS42 KKEY 260310
RWRKEY

FLORIDA REGIONAL WEATHER ROUNDUP FOR THE FLORIDA KEYS
NATIONAL WEATHER SERVICE KEY WEST FLORIDA
1100 PM EDT SAT OCT 25 2014

...SOUTH FLORIDA AND THE KEYS...

CITY           SKY/WX    TMP DP  RH WIND       PRES   REMARKS
FORT MYERS     CLEAR     66  57  72 N7        29.97R
SW REGIONAL AP CLEAR     67  58  72 N3        29.97S
NAPLES         CLEAR     70  62  76 CALM      29.96S
MIAMI          CLEAR     74  63  68 CALM      29.95S
WEST KENDALL   CLEAR     72  63  73 N7        29.96R
HOMESTEAD      CLEAR     69  62  79 NW5       29.95R
MARATHON       CLEAR     76  68  76 NE7       29.95R
BOCA CHICA NAS CLEAR     76  65  68 N9        29.96R
KEY WEST INTL  CLEAR     76  67  73 N7        29.96R

...INTERNATIONAL WEATHER...

CITY           SKY/WX    TMP DP  RH WIND       PRES   REMARKS
NASSAU BAHAMAS PTCLDY    77  66  69 N9        29.91R
CANCUN MEXICO  PTCLDY    70  66  88 NW6       29.99R
COZUMEL MEXICO PTCLDY    72  68  88 N12       29.99R

ADJACENT COASTAL WATERS...

STATION/POSITION TIME  SKY/WX   TEMP    WIND        PRES    WAVE
                                AIR SEA DIR/SP/G            HT/PER
                 (UTC)          (F)     (DEG/KT/KT) (MB)    (FT/S)
PULASKI SHOAL LI 0200            77      30/ 15/ 17 1014.6R
SAND KEY         0240            77      20/ 12/ 15 1014.4R
SOMBRERO KEY     0300            77      30/  8/ 10 1014.9R
LONG KEY         0200            77 77   60/ 13/ 14 1014.6F
MOLASSES REEF    0300            78 80  360/ 10/ 10 1013.8R
FOWEY ROCKS      0300            76 81  340/ 16/ 17 1013.9R
Buoy 42080       NOT AVBL

$$



USA.gov is the U.S. government's official web portal to all federal, state and local government web resources and services.